Regional Weather Roundup
Issued by NWS

Home | Current Version | Previous Version | Graphics & Text | Print | Product List | Glossary On
Versions: 1 2 3 4 5 6 7 8 9 10 11 12 13 14 15 16 17 18 19 20 21 22 23 24 25 26 27 28 29 30 31 32 33 34 35 36 37 38 39 40 41 42 43 44 45 46 47 48 49 50
000
ASUS45 KABQ 250210
RWRNM
WEATHER ROUNDUP FOR NEW MEXICO
NATIONAL WEATHER SERVICE ALBUQUERQUE NM
800 PM MDT FRI APR 24 2015

NOTE: "FAIR" MEANS FEW OR NO CLOUDS BELOW 12,000 FEET AGL WITH NO
       SIGNIFICANT WEATHER OR OBSTRUCTIONS TO VISION.

      THIS PRODUCT IS RELEASED AS TWO VERSIONS.  ONE VERSION NEAR
      THE TOP OF THE HOUR CONTAINING PRELIMINARY DATA FROM ALBUQUERQUE
      AND OTHER STATIONS.  A FINAL VERSION WITH ADDITIONAL DATA IS
      ISSUED ABOUT 10 MINUTES AFTER THE HOUR.

NMZ501-503-504-510>518-250300-
NORTHWEST PLATEAU/NORTHCENTRAL MOUNTAINS

CITY           SKY/WX    TMP DP  RH WIND       PRES   REMARKS
FARMINGTON     CLOUDY    55  32  41 SW16G23   29.83R
LOS ALAMOS     MOCLDY    47  25  41 W10G18    29.93R
SANTA FE       PTCLDY    48  28  46 N7        29.89R
TAOS           MOCLDY    43  25  49 SW16      29.92R
ANGEL FIRE     CLOUDY    37  26  66 NW6G23    29.91R WCI  32

$$
NMZ402-403-502-505>509-250300-
WESTCENTRAL MOUNTAINS/SOUTHWEST MOUNTAINS

CITY           SKY/WX    TMP DP  RH WIND       PRES   REMARKS
GALLUP         PTCLDY    48  34  58 SW13      29.95R
GRANTS         PTCLDY    49  31  49 W21G31    29.96R
SILVER CITY      N/A     57  28  33 W18       29.99R

$$
NMZ407-409-411-412-250300-
SOUTHERN DESERTS

CITY           SKY/WX    TMP DP  RH WIND       PRES   REMARKS
LORDSBURG      FAIR      63  28  27 W13G18    29.94S
DEMING         CLEAR     64  29  26 W13G22    29.93R
LAS CRUCES     CLEAR     63  26  24 W15G22    29.94R
HOLLOMAN AFB   CLEAR     66  28  24 SW21G29   29.87R
ALAMOGORDO     PTCLDY    64  27  24 W15G21    29.89R
T OR C         CLEAR     62  27  26 W17G24    29.90R

$$
NMZ519>523-250300-
CENTRAL VALLEYS/CENTRAL HIGHLANDS

CITY           SKY/WX    TMP DP  RH WIND       PRES   REMARKS
ALBUQUERQUE    MOCLDY    55  40  56 SE5       29.88R
DOUBLE EAGLE   MOCLDY    55  25  30 W15         N/A
MORIARTY ARPT  FAIR      50  28  42 W12G20    29.90S
CLINES CORNERS PTCLDY    44  28  53 W13       29.89R
BELEN          FAIR      54  42  63 CALM      29.88R
SOCORRO        FAIR      62  25  24 W10       29.86R

$$
NMZ524>526-539-540-250300-
SOUTHCENTRAL MOUNTAINS

CITY           SKY/WX    TMP DP  RH WIND       PRES   REMARKS
RUIDOSO        PTCLDY    50  21  32 SW17G23   29.94S

$$
NMZ527>531-250300-
NORTHEAST HIGHLANDS/NORTHEAST PLAINS

CITY           SKY/WX    TMP DP  RH WIND       PRES   REMARKS
LAS VEGAS      PTCLDY    44  27  51 NW21      29.86R
RATON          PTCLDY    51  21  30 W10       29.74R
CLAYTON        CLOUDY    61  27  27 W14       29.64R

$$
NMZ532>537-250300-
EASTCENTRAL PLAINS

CITY           SKY/WX    TMP DP  RH WIND       PRES   REMARKS
TUCUMCARI      CLEAR     66  22  18 W28G37    29.69R
CANNON AFB     PTCLDY    63  28  26 W30G38    29.77R
CLOVIS AIRPORT CLEAR     63  28  27 W31G38    29.75S

$$
NMZ028-029-538-250300-
SOUTHEAST PLAINS

CITY           SKY/WX    TMP DP  RH WIND       PRES   REMARKS
ROSWELL        CLEAR     63  32  31 NW8       29.81R
ARTESIA        CLEAR     68  23  18 W17G25    29.82R
CARLSBAD       CLEAR     69  22  16 W13       29.82R
HOBBS          CLEAR     66  23  19 W12       29.83R


$$



USA.gov is the U.S. government's official web portal to all federal, state and local government web resources and services.